www.pogodaiklimat.ru

Погода и климат >> Архив погоды >> Бразилия >> Esperantina


ПОГОДА в Esperantina

  • Прогноз погоды в Esperantina
  • Монитор погоды в Esperantina
  • Климат города

АРХИВ ПОГОДЫ в Esperantina

Время (UTC), дата Ветер
(напр.,м/с)
 
Видим.   Явления Облачность Т
(С)
Тd
(С)
f
(%)
Тe
(С)
Тes
(С)
Комфортность P
(гПа)
Po
(гПа)
Тmin
(С)
Tmax
(С)
R
(мм)
R24
(мм)
S
(см)
01 13.11 С 1
{3}
н/о н/о +26.2 +20.7 72 +33 +33 очень
душно
1009.8 999.7
02 13.11 С 1
{3}
н/о н/о +25.9 +20.8 73 +32 +32 очень
душно
1009.8 999.7
03 13.11 штиль 0
{3}
н/о н/о +25.2 +20.1 73 +31 +31 очень
душно
1009.3 999.2
05 13.11 штиль 0
{2}
н/о н/о +24.2 +19.9 77 +30 +30 очень
душно
1008.4 998.3
04 13.11 штиль 0
{3}
н/о н/о +24.6 +19.5 73 +30 +30 очень
душно
1008.8 998.7
06 13.11 штиль 0 н/о н/о +23.7 +20.2 81 +29 +29 душно 1008.5 998.3
07 13.11 штиль 0 н/о н/о +23.3 +20.3 83 +31 +31 очень
душно
1008.8 998.6
08 13.11 штиль 0 н/о н/о +22.9 +20.2 85 +30 +30 очень
душно
1009.3 999.1
09 13.11 штиль 0 н/о н/о +22.9 +20.4 86 +30 +30 очень
душно
1009.5 999.3
11 13.11 С 1
{4}
н/о н/о +27.8 +19.6 61 +34 +34 очень
душно
1010.8 1000.7
10 13.11
{4}
н/о н/о +25.5 +20.4 73 1010.2 1000.1
12 13.11 СВ 1
{3}
н/о н/о +30.8 +17.4 45 +35 +35 очень
душно
1011.1 1001.1
13 13.11 СВ 1
{3}
н/о н/о +33.1 +16.3 37 +36 +36 очень
душно
1010.6 1000.7
14 13.11 В 1
{3}
н/о н/о +36.1 +14.4 27 +37 +37 душно 1009.8 1000.0
15 13.11 В 1
{3}
н/о н/о +37.4 +13.8 25 +38 +38 душно 1008.4 998.7
17 13.11 С 1
{3}
н/о н/о +37.4 +11.3 21 +37 +37 очень
жарко
1005.6 995.9
16 13.11 В 1
{3}
н/о н/о +37.6 +12.7 23 +38 +38 очень
жарко
1006.8 997.1
18 13.11 ЮВ 1
{3}
н/о н/о +38.9 +11.6 20 +38 +38 очень
жарко
1004.8 995.2
19 13.11 СЗ 1
{2}
н/о н/о +38.3 +12.3 21 +38 +38 очень
жарко
1004.6 994.9
20 13.11 С 3
{5}
н/о н/о +33.5 +18.6 41 +38 +38 очень
душно
1005.6 995.8
21 13.11 С 2
{5}
н/о н/о +31.3 +18.6 47 +36 +36 очень
душно
1006.6 996.7
23 13.11 С 2
{5}
н/о н/о +28.0 +19.1 58 +33 +33 очень
душно
1008.7 998.7
22 13.11 С 2
{4}
н/о н/о +29.5 +18.9 53 +35 +35 очень
душно
1007.8 997.8
00 14.11 С 2
{4}
н/о н/о +27.3 +19.3 62 +33 +33 очень
душно
1009.7 999.6
01 14.11 С 1
{4}
н/о н/о +26.8 +19.4 64 +32 +32 очень
душно
1010.1 1000.0
02 14.11 штиль 0
{3}
н/о н/о +26.3 +19.4 66 +32 +32 очень
душно
1009.7 999.6
03 14.11
{3}
н/о н/о +25.8 +19.2 67 1009.3 999.2
05 14.11
{3}
н/о н/о +24.9 +19.3 71 1008.2 998.1
04 14.11 С 1
{3}
н/о н/о +25.3 +19.1 69 +30 +30 душно 1009.1 999.0
06 14.11 С 1
{2}
н/о н/о +24.2 +19.6 76 +29 +29 душно 1007.9 997.8
07 14.11 С 1
{2}
н/о н/о +23.8 +19.8 78 +29 +29 душно 1008.2 998.0
08 14.11 штиль 0
{2}
н/о н/о +23.6 +19.9 80 +29 +29 душно 1008.9 998.7
09 14.11 штиль 0 н/о н/о +23.6 +20.2 81 +29 +29 душно 1009.6 999.4
11 14.11 В 1
{2}
н/о н/о +29.4 +17.3 48 +33 +33 душно 1011.0 1001.0
10 14.11 СВ 1
{2}
н/о н/о +26.3 +20.1 69 +32 +32 очень
душно
1010.4 1000.3
12 14.11 В 1
{3}
н/о н/о +31.4 +16.5 41 +35 +35 очень
душно
1011.2 1001.3
13 14.11 В 1
{4}
н/о н/о +32.1 +15.9 38 +35 +35 очень
душно
1010.9 1001.0
14 14.11 В 1
{3}
н/о н/о +32.9 +14.8 34 +35 +35 душно 1010.2 1000.3
15 14.11 ЮВ 1
{3}
н/о н/о +34.4 +15.0 31 +36 +36 душно 1009.0 999.2
17 14.11 СВ 1
{3}
н/о н/о +36.2 +14.6 28 +37 +37 очень
жарко
1006.3 996.6
16 14.11 Ю 2
{3}
н/о н/о +35.6 +14.6 29 +37 +37 душно 1007.5 997.7
18 14.11 В 1
{3}
н/о н/о +38.2 +14.8 25 +39 +39 очень
душно
1005.6 995.9
19 14.11 ЮВ 1
{2}
н/о н/о +37.6 +14.8 26 +39 +39 очень
душно
1005.4 995.7
20 14.11 штиль 0
{2}
н/о н/о +36.9 +14.7 27 +38 +38 очень
душно
1005.4 995.7
21 14.11 С 2
{5}
н/о н/о +31.5 +19.5 49 +37 +37 очень
душно
1006.9 997.0
23 14.11 С 1
{4}
н/о н/о +28.5 +21.2 65 +36 +36 очень
душно
1009.2 999.2
22 14.11 С 2
{5}
н/о н/о +29.4 +20.7 60 +37 +37 очень
душно
1007.9 997.9
00 15.11 С 1
{3}
н/о н/о +27.9 +21.3 67 +35 +35 очень
душно
1010.0 1000.0
01 15.11 штиль 0
{2}
н/о н/о +27.5 +21.2 69 +35 +35 очень
душно
1010.4 1000.3
02 15.11 штиль 0
{1}
н/о н/о +27.3 +20.6 67 +34 +34 очень
душно
1010.1 1000.0
03 15.11 штиль 0 н/о н/о +27.0 +20.2 66 +33 +33 очень
душно
1009.7 999.6
05 15.11 штиль 0 н/о н/о +25.9 +19.2 67 +31 +31 очень
душно
1008.6 998.5
04 15.11 штиль 0 н/о н/о +26.4 +19.5 66 +32 +32 очень
душно
1009.1 999.0
06 15.11 штиль 0 н/о н/о +25.3 +19.2 69 +30 +30 душно 1008.9 998.8
07 15.11 штиль 0 н/о н/о +25.0 +19.1 70 +30 +30 душно 1009.2 999.1
08 15.11 штиль 0 н/о н/о +24.0 +18.8 73 +29 +29 душно 1010.2 1000.0
09 15.11 штиль 0 н/о н/о +24.7 +18.7 69 +29 +29 душно 1010.9 1000.7
11 15.11 В 1
{3}
н/о н/о +30.6 +17.1 44 +34 +34 очень
душно
1011.6 1001.6
10 15.11 штиль 0 н/о н/о +27.8 +18.5 57 +33 +33 очень
душно
1011.4 1001.3
12 15.11 В 2
{4}
н/о н/о +31.9 +16.6 40 +35 +35 очень
душно
1011.3 1001.4
13 15.11 В 2
{4}
н/о н/о +33.4 +16.5 36 +36 +36 очень
душно
1011.1 1001.2
14 15.11 В 2
{4}
н/о н/о +35.2 +15.5 31 +37 +37 очень
душно
1010.1 1000.3
15 15.11 В 2
{4}
н/о н/о +35.7 +15.4 30 +37 +37 душно 1009.0 999.2
17 15.11 ЮВ 1
{4}
н/о н/о +37.6 +15.0 26 +39 +39 очень
душно
1007.0 997.3
16 15.11 В 2
{4}
н/о н/о +36.4 +15.0 28 +38 +38 очень
душно
1007.9 998.2
18 15.11 В 1
{4}
н/о н/о +36.0 +14.4 28 +37 +37 душно 1006.5 996.8
19 15.11 В 1
{3}
н/о н/о +37.4 +13.6 24 +38 +38 душно 1006.0 996.3
20 15.11 С 2
{4}
н/о н/о +34.0 +18.0 39 +38 +38 очень
душно
1006.5 996.7
21 15.11 С 2
{4}
н/о н/о +31.5 +19.1 48 +37 +37 очень
душно
1007.6 997.7
23 15.11 С 2
{4}
н/о н/о +28.5 +20.2 61 +35 +35 очень
душно
1009.6 999.6
22 15.11
{4}
н/о н/о +29.6 +19.5 55 1008.5 998.5
00 16.11 С 2
{4}
н/о н/о +27.9 +20.5 64 +35 +35 очень
душно
1010.5 1000.5
01 16.11 С 1
{3}
н/о н/о +26.9 +20.4 68 +33 +33 очень
душно
1010.8 1000.7
02 16.11 штиль 0
{2}
н/о н/о +26.0 +20.1 70 +32 +32 очень
душно
1010.7 1000.6
03 16.11 штиль 0 н/о н/о +25.3 +19.6 71 +31 +31 очень
душно
1010.2 1000.1
05 16.11 штиль 0
{2}
н/о н/о +24.2 +19.2 74 +29 +29 душно 1010.0 999.8
04 16.11 штиль 0
{1}
н/о н/о +24.6 +19.6 74 +30 +30 очень
душно
1010.0 999.8
06 16.11 штиль 0
{1}
н/о н/о +23.5 +19.0 76 +28 +28 душно 1009.9 999.7
07 16.11 штиль 0 н/о н/о +22.5 +18.9 80 +28 +28 душно 1010.2 1000.0
08 16.11 штиль 0 н/о н/о +21.6 +18.7 84 +26 +26 душно 1010.8 1000.5
09 16.11 штиль 0 н/о н/о +22.4 +19.3 83 +28 +28 душно 1011.5 1001.3
11 16.11 штиль 0 н/о н/о +29.1 +19.1 55 +35 +35 очень
душно
1012.6 1002.6
10 16.11 штиль 0 н/о н/о +24.9 +19.3 71 +30 +30 душно 1012.4 1002.2
12 16.11 В 1
{3}
н/о н/о +31.1 +17.0 43 +35 +35 очень
душно
1012.6 1002.6
13 16.11 ЮВ 1
{3}
н/о н/о +33.1 +14.9 33 +35 +35 душно 1012.1 1002.2
14 16.11 В 1
{3}
н/о н/о +33.8 +14.9 32 +35 +35 очень
жарко
1011.4 1001.5
15 16.11 В 1
{4}
н/о н/о +36.4 +13.5 25 +37 +37 очень
жарко
1010.0 1000.2
17 16.11 В 1
{3}
н/о н/о +38.4 +12.3 21 +38 +38 очень
жарко
1007.6 997.9
16 16.11 В 1
{3}
н/о н/о +36.4 +12.4 24 +36 +36 очень
жарко
1008.8 999.0
18 16.11 В 1
{3}
н/о н/о +38.2 +11.3 20 +37 +37 очень
жарко
1007.1 997.4
19 16.11 Ю 1
{3}
н/о н/о +37.5 +11.6 21 +37 +37 очень
жарко
1007.0 997.3
20 16.11 З 1
{2}
н/о н/о +36.6 +11.5 22 +36 +36 очень
жарко
1007.3 997.6
21 16.11 С 2
{5}
н/о н/о +31.8 +18.9 46 +37 +37 очень
душно
1008.5 998.6
23 16.11 С 2
{4}
н/о н/о +28.3 +19.1 57 +34 +34 очень
душно
1010.9 1000.9
22 16.11
{4}
н/о н/о +29.6 +19.2 54 1009.7 999.7
00 17.11 С 1
{4}
н/о н/о +27.3 +18.8 60 +32 +32 очень
душно
1011.3 1001.2
01 17.11 штиль 0
{3}
н/о н/о +26.5 +19.1 64 +32 +32 очень
душно
1011.3 1001.2
02 17.11 штиль 0 н/о н/о +26.0 +19.0 65 +31 +31 очень
душно
1011.1 1001.0
03 17.11 штиль 0 н/о н/о +25.3 +19.0 68 +30 +30 душно 1010.4 1000.3
05 17.11 штиль 0 н/о н/о +24.6 +19.1 71 +30 +30 очень
душно
1009.5 999.4
04 17.11 штиль 0 н/о н/о +24.8 +18.9 70 +30 +30 душно 1009.7 999.6
06 17.11 штиль 0 н/о н/о +24.3 +19.2 73 +29 +29 душно 1009.7 999.5
07 17.11 штиль 0 н/о н/о +23.5 +19.4 78 +29 +29 душно 1010.2 1000.0
08 17.11 штиль 0 н/о н/о +23.0 +19.4 80 +29 +29 очень
душно
1010.4 1000.2
09 17.11 штиль 0 н/о н/о +23.0 +19.8 82 +30 +30 очень
душно
1010.6 1000.4
11 17.11 В 1
{3}
н/о н/о +28.8 +18.9 55 +34 +34 очень
душно
1011.6 1001.6
10 17.11 штиль 0 н/о н/о +24.9 +20.2 75 +31 +31 очень
душно
1011.3 1001.1
12 17.11 В 2
{4}
н/о н/о +31.6 +18.1 45 +36 +36 очень
душно
1011.9 1002.0
13 17.11 В 1
{4}
н/о н/о +34.2 +16.5 35 +37 +37 очень
душно
1011.8 1001.9
14 17.11 СВ 1
{4}
н/о н/о +33.5 +15.9 35 +36 +36 очень
душно
1011.2 1001.3
15 17.11 В 1
{4}
н/о н/о +35.0 +15.8 32 +37 +37 очень
душно
1010.0 1000.2
17 17.11 ЮВ 1
{3}
н/о н/о +36.5 +14.6 27 +38 +38 очень
душно
1007.6 997.9
16 17.11 ЮВ 1
{3}
н/о н/о +36.3 +14.8 28 +38 +38 очень
душно
1008.8 999.0
18 17.11 В 1
{3}
н/о н/о +36.1 +13.9 27 +37 +37 душно 1006.9 997.2
19 17.11 штиль 0
{2}
н/о н/о +36.1 +13.9 27 +37 +37 душно 1006.6 996.9
20 17.11 Ю 1
{2}
н/о н/о +35.3 +14.2 28 +36 +36 очень
жарко
1006.7 996.9
21 17.11 С 2
{4}
н/о н/о +32.3 +19.0 45 +37 +37 очень
душно
1007.6 997.7
23 17.11 С 2
{5}
н/о н/о +27.9 +19.9 62 +34 +34 очень
душно
1009.3 999.3
22 17.11
{5}
н/о н/о +29.8 +18.9 52 1008.5 998.5
00 18.11 С 1
{3}
н/о н/о +27.0 +20.8 69 +34 +34 очень
душно
1010.0 999.9
01 18.11 штиль 0
{3}
н/о н/о +26.4 +21.0 72 +33 +33 очень
душно
1010.1 1000.0
02 18.11 штиль 0
{1}
н/о н/о +25.8 +21.1 75 +32 +32 очень
душно
1009.9 999.8
03 18.11 штиль 0
{1}
н/о н/о +25.0 +21.0 78 +31 +31 очень
душно
1009.2 999.1
05 18.11 штиль 0 н/о н/о +24.1 +20.2 79 +30 +30 очень
душно
1008.1 998.0
04 18.11 штиль 0 н/о н/о +24.6 +20.8 79 +31 +31 очень
душно
1008.4 998.3
06 18.11 штиль 0 н/о н/о +23.8 +19.6 77 +29 +29 душно 1007.9 997.7
07 18.11 штиль 0 н/о н/о +23.2 +19.4 79 +30 +30 очень
душно
1007.9 997.7
08 18.11 штиль 0
{1}
н/о н/о +22.9 +19.3 80 +29 +29 очень
душно
1008.4 998.2
09 18.11 штиль 0
{2}
н/о н/о +23.1 +19.4 80 +30 +30 очень
душно
1008.8 998.6
11 18.11 В 1
{3}
н/о н/о +28.5 +19.1 57 +34 +34 очень
душно
1010.4 1000.4
10 18.11 штиль 0 н/о н/о +25.5 +19.9 71 +31 +31 очень
душно
1009.8 999.7
12 18.11 В 1
{3}
н/о н/о +30.7 +17.5 45 +35 +35 очень
душно
1010.6 1000.6
13 18.11 В 1
{3}
н/о н/о +33.2 +15.6 35 +36 +36 очень
душно
1010.3 1000.4
14 18.11 В 1
{3}
н/о н/о +34.0 +15.0 32 +36 +36 душно 1009.3 999.5
15 18.11 В 1
{3}
н/о н/о +36.1 +15.2 29 +38 +38 очень
душно
1008.4 998.6
17 18.11 ЮВ 1
{3}
н/о н/о +37.0 +12.6 23 +37 +37 очень
жарко
1005.8 996.1
16 18.11 В 1
{3}
н/о н/о +35.8 +12.9 25 +36 +36 очень
жарко
1007.1 997.3
18 18.11 штиль 0
{2}
н/о н/о +38.0 +12.7 22 +38 +38 очень
жарко
1005.1 995.4
19 18.11 штиль 0 н/о н/о +37.7 +12.5 22 +37 +37 очень
жарко
1004.7 995.0
20 18.11 С 2
{5}
н/о н/о +33.7 +18.8 41 +38 +38 очень
душно
1005.6 995.8
21 18.11 С 2
{4}
н/о н/о +30.9 +19.9 52 +37 +37 очень
душно
1006.4 996.5
23 18.11 С 2
{4}
н/о н/о +27.5 +20.1 64 +34 +34 очень
душно
1007.9 997.9
22 18.11 С 2
{5}
н/о н/о +28.9 +20.2 59 +35 +35 очень
душно
1007.2 997.2
00 19.11 штиль 0
{3}
н/о н/о +26.5 +19.9 67 +32 +32 очень
душно
1008.5 998.4
01 19.11 штиль 0 н/о н/о +25.8 +20.0 70 +32 +32 очень
душно
1008.8 998.7
02 19.11 штиль 0 н/о н/о +25.0 +20.1 74 +31 +31 очень
душно
1008.7 998.6
03 19.11 штиль 0 н/о н/о +24.6 +20.4 77 +30 +30 очень
душно
1008.9 998.8
05 19.11 штиль 0 н/о н/о +23.9 +19.6 77 +29 +29 душно 1008.3 998.1
04 19.11 штиль 0 н/о н/о +24.4 +20.2 77 +30 +30 очень
душно
1008.5 998.4
06 19.11 штиль 0 н/о н/о +23.5 +19.1 76 +28 +28 душно 1008.4 998.2
07 19.11 штиль 0
{3}
н/о н/о +23.4 +18.7 75 +30 +30 очень
душно
1008.7 998.5
08 19.11 штиль 0 н/о н/о +22.7 +19.2 81 +29 +29 очень
душно
1009.1 998.9
09 19.11 штиль 0 н/о н/о +22.6 +19.6 83 +29 +29 очень
душно
1009.5 999.3
11 19.11 В 1
{3}
н/о н/о +28.0 +18.6 57 +33 +33 очень
душно
1011.0 1001.0
10 19.11 штиль 0 н/о н/о +25.4 +20.0 72 +31 +31 очень
душно
1010.3 1000.2
12 19.11 СВ 1
{3}
н/о н/о +31.1 +18.2 46 +36 +36 очень
душно
1010.8 1000.9
13 19.11 В 1
{3}
н/о н/о +34.0 +17.4 37 +37 +37 очень
душно
1010.9 1001.0
14 19.11 Ю 1
{2}
н/о н/о +34.0 +15.7 33 +36 +36 душно 1010.2 1000.4
15 19.11 Ю 1
{3}
н/о н/о +36.1 +14.3 27 +37 +37 душно 1009.3 999.5
17 19.11 ЮЗ 1
{3}
н/о н/о +37.3 +12.8 23 +37 +37 очень
жарко
1007.2 997.5
16 19.11 В 1
{3}
н/о н/о +37.6 +14.0 25 +38 +38 очень
жарко
1008.2 998.5
18 19.11 Ю 1
{3}
н/о н/о +36.7 +12.7 24 +37 +37 очень
жарко
1006.7 997.0
19 19.11 ЮЗ 1
{2}
н/о н/о +36.7 +12.2 23 +36 +36 очень
жарко
1006.3 996.6
20 19.11 С 2
{4}
н/о н/о +32.9 +18.8 43 +38 +38 очень
душно
1006.9 997.1
21 19.11 штиль 0
{4}
н/о н/о +30.3 +19.5 52 +36 +36 очень
душно
1007.7 997.8
23 19.11 С 1
{4}
н/о н/о +27.0 +20.0 66 +33 +33 очень
душно
1009.2 999.1
22 19.11
{4}
н/о н/о +28.2 +19.7 60 1008.5 998.5
00 20.11 штиль 0
{3}
н/о н/о +26.4 +19.8 67 +32 +32 очень
душно
1009.7 999.6
01 20.11 штиль 0 н/о н/о +25.8 +19.7 69 +31 +31 очень
душно
1009.7 999.6

 

Местоположение метеостанции Esperantina (Бразилия): широта -3.90 долгота -42.27 высота над уровнем моря 67 м.

В архиве по умолчанию представлена погода в Esperantina за последнюю неделю. Архивные данные за месяц целиком и за предыдущие месяцы, начиная с января 2011 года, Вы можете получить, выбрав интересующий диапазон дат из раскрывающегося списка и нажав кнопку "Ввод!".

Внимание! Время в таблицах - всемирное. Для получения местного времени необходимо прибавить поправку, которая в Esperantina равна -3 ч.

Смотрите также архив погоды в соседних городах и на ближайших метеорологических станциях:

Погода в Piripiri (Бразилия) (67 км)
Погода в Parnaiba (Бразилия) (106 км)
Погода в Parnaiba (Бразилия) (107 км)
Погода в Chapadinha (Бразилия) (121 км)
Погода в Teresina (Бразилия) (140 км)
Погода в Teresina (Бразилия) (141 км)
Погода в Caxias (Бразилия) (158 км)
Погода в Caxias (Бразилия) (161 км)
Погода в Castelo do Piaui (Бразилия) (181 км)
Погода в Sobral (Бразилия) (214 км)

Пояснения к столбцам:

Ветер - указаны скорость ветра в м/с - средняя за 10 мин, порывы в срок и между сроками (в фигурных скобках) и направление, откуда дует ветер: С - северный, СВ - северо-восточный, В - восточный, ЮВ - юго-восточный, Ю - южный, ЮЗ - юго-западный, З - западный, СЗ - северо-западный.
Видимость - горизонтальная дальность видимости в метрах или километрах. При видимости от 1 до 10 км при отсутствии осадков обычно наблюдается дымка, при ухудшении видимости до 1 км и менее - туман. В сухую погоду видимость может ухудшаться дымом, пылью или мглою.
Явления - указаны атмосферные явления, наблюдавшиеся в срок или в последний час перед сроком; фигурными скобками обозначены явления, наблюдавшиеся между сроками (за 1-3 часа до срока); квадратными скобками обозначены град или гололедные отложения с указанием их диаметра в мм.
Облачность - указаны через наклонную черту общая и нижняя облачность в баллах и высота нижней границы облаков в метрах; квадратными скобками обозначены формы облаков: Ci - перистые, Cs - перисто-слоистые, Cc - перисто-кучевые, Ac - высококучевые, As - высокослоистые, Sc - слоисто-кучевые, Ns - слоисто-дождевые, Cu - кучевые, Cb - кучево-дождевые. Подробнее классификацию облаков см. в Атласе облаков (PDF).
T - Температура воздуха - температура, измеренная на высоте 2 м над землей.
Td - Температура точки росы - температура, при понижении до которой содержащийся в воздухе водяной пар достигнет насыщения.
f - Относительная влажность воздуха - влажноcть воздуха, измеренная на высоте 2 м над землей.
Te - Эффективная температура - температура, которую ощущает одетый по сезону человек в тени. Характеристика душности погоды. При расчете учитывается влияние влажности воздуха и скорости ветра на теплоощущения человека.
Tes - Эффективная температура на солнце - температура, которую ощущает человек, с поправкой на солнечный нагрев. Характеристика знойности погоды. Зависит от высоты солнца над горизонтом, облачности и скорости ветра. Ночью, в пасмурную погоду, а также при ветре 12 м/с и более поправка равна нулю.
P - Атмосферное давление - приведенное к уровню моря атмосферное давление.
Po - Атмосферное давление - измеренное на уровне метеостанции атмосферное давление.
Tmin - Минимальная температура - минимум температуры воздуха на высоте 2 м над землей.
Tmax - Максимальная температура - максимум температуры воздуха на высоте 2 м над землей.
R - Количество осадков - Количество выпавших осадков за период времени, мм. При наведении курсора мыши на число - период времени, за который выпало указанное количество осадков.
R24 - Количество осадков - Количество выпавших осадков за 24 часа, мм.
S - Снежный покров - Высота снежного покрова, см. При наведении курсора мыши на число - состояние снежного покрова и степень покрытия местности в баллах.